Weather History for KWYS - November, 2011

Change the Weather History Date:

Wednesday, November 16, 2011

  Actual Average Record
Temperature  
Mean Temperature 2 °F -  
Max Temperature 23 °F 32 °F 37 °F (2012)
Min Temperature -18 °F 12 °F -18 °F (2011)
Degree Days  
Heating Degree Days 62    
Moisture  
Dew Point -6 °F    
Average Humidity 58    
Maximum Humidity 85    
Minimum Humidity 30    
Precipitation  
Precipitation 0.00 in - - ()
Sea Level Pressure  
Sea Level Pressure 30.19 in    
Wind  
Wind Speed 5 mph (SSW)    
Max Wind Speed 18 mph    
Max Gust Speed 25 mph    
Visibility 10 miles    
Events      
Averages and records for this station are not official NWS values.
T = Trace of Precipitation, MM = Missing Value Source: NWS Daily Summary

Daily Weather History Graph

Daily Weather History Graph

Search for Another Location

Airport or City:

Trip Planner

Search our weather history database for the weather conditions in past years. The results will help you decide how hot, cold, wet, or windy it might be!

Date:

Astronomy

Nov. 16, 2011 Rise Set
Actual Time 7:22 AM MST 4:55 PM MST
Civil Twilight 6:50 AM MST 5:27 PM MST
Nautical Twilight 6:15 AM MST 6:02 PM MST
Astronomical Twilight 5:40 AM MST 6:37 PM MST
Moon 10:15 PM MST (11/16) 11:59 AM MST (11/16)
Length of Visible Light 10h 36m
Length of Day
9h 33m
Waning Gibbous, 69% of the Moon is Illuminated
Nov 16
Waning Gibbous
Nov 18
Last Quarter
Nov 24
New
Dec 2
First Quarter
Dec 10
Full

Hourly Weather History & Observations

Time (MST) Temp. Windchill Dew Point Humidity Pressure Visibility Wind Dir Wind Speed Gust Speed Precip Events Conditions
12:20 AM 15.8 °F 6.1 °F -0.4 °F 49% 30.06 in 10.0 mi West 6.9 mph - N/A   Overcast
12:40 AM 15.8 °F 8.6 °F -0.4 °F 49% 30.08 in 10.0 mi WNW 4.6 mph - N/A   Overcast
1:00 AM 15.8 °F - -0.4 °F 49% 30.10 in 10.0 mi Calm Calm - N/A   Overcast
1:20 AM 10.4 °F 2.2 °F -0.4 °F 62% 30.11 in 10.0 mi NNE 4.6 mph - N/A   Partly Cloudy
1:40 AM 8.6 °F 2.0 °F -2.2 °F 62% 30.12 in 10.0 mi South 3.5 mph - N/A   Clear
2:00 AM 6.8 °F - -2.2 °F 67% 30.12 in 10.0 mi Calm Calm - N/A   Clear
2:20 AM 5.0 °F -5.6 °F -2.2 °F 72% 30.13 in 10.0 mi South 5.8 mph - N/A   Clear
2:40 AM 5.0 °F -2.1 °F -2.2 °F 72% 30.14 in 10.0 mi SSW 3.5 mph - N/A   Clear
3:00 AM 1.4 °F -12.5 °F -2.2 °F 85% 30.14 in 10.0 mi SSW 8.1 mph - N/A   Clear
3:20 AM 3.2 °F -10.3 °F -2.2 °F 78% 30.15 in 10.0 mi SW 8.1 mph - N/A   Clear
3:40 AM 3.2 °F - -4.0 °F 72% 30.15 in 10.0 mi Calm Calm - N/A   Clear
4:00 AM -0.4 °F -10.4 °F -5.8 °F 78% 30.16 in 10.0 mi East 4.6 mph - N/A   Clear
4:20 AM -4.0 °F -12.4 °F -7.6 °F 85% 30.15 in 10.0 mi ESE 3.5 mph - N/A   Clear
4:40 AM -4.0 °F -12.4 °F -9.4 °F 78% 30.17 in 10.0 mi ESE 3.5 mph - N/A   Clear
5:00 AM -7.6 °F -18.8 °F -11.2 °F 84% 30.17 in 10.0 mi NE 4.6 mph - N/A   Clear
5:20 AM -9.4 °F - -13.0 °F 84% 30.18 in 10.0 mi Calm Calm - N/A   Clear
5:40 AM -9.4 °F - -14.8 °F 77% 30.19 in 10.0 mi Calm Calm - N/A   Clear
6:00 AM -13.0 °F -22.7 °F -18.4 °F 77% 30.19 in 10.0 mi SSE 3.5 mph - N/A   Clear
6:20 AM -13.0 °F - -18.4 °F 77% 30.20 in 10.0 mi Calm Calm - N/A   Clear
6:40 AM -16.6 °F - -22.0 °F 76% 30.21 in 10.0 mi Calm Calm - N/A   Clear
7:20 AM -18.4 °F - -23.8 °F 76% 30.22 in 10.0 mi Calm Calm - N/A   Clear
7:40 AM -18.4 °F - -25.6 °F 70% 30.23 in 10.0 mi Calm Calm - N/A   Clear
8:00 AM -18.4 °F - -25.6 °F 70% 30.24 in 10.0 mi Calm Calm - N/A   Clear
8:20 AM -14.8 °F - -20.2 °F 77% 30.24 in 9.0 mi Calm Calm - N/A   Clear
9:00 AM -4.0 °F - -9.4 °F 78% 30.25 in 10.0 mi Calm Calm - N/A   Clear
9:20 AM -2.2 °F - -7.6 °F 78% 30.25 in 10.0 mi Calm Calm - N/A   Clear
9:40 AM -0.4 °F -8.3 °F -7.6 °F 72% 30.25 in 10.0 mi SSE 3.5 mph - N/A   Clear
10:00 AM 1.4 °F - -5.8 °F 72% 30.25 in 10.0 mi Calm Calm - N/A   Clear
10:20 AM 5.0 °F - -4.0 °F 66% 30.25 in 10.0 mi Calm Calm - N/A   Clear
10:40 AM 6.8 °F - -2.2 °F 67% 30.24 in 10.0 mi Calm Calm - N/A   Clear
11:00 AM 8.6 °F - -2.2 °F 62% 30.24 in 10.0 mi Calm Calm - N/A   Clear
11:20 AM 10.4 °F - -2.2 °F 57% 30.23 in 10.0 mi Calm Calm - N/A   Clear
11:40 AM 14.0 °F - -2.2 °F 49% 30.23 in 10.0 mi Calm Calm - N/A   Clear
12:00 PM 17.6 °F 3.2 °F -5.8 °F 35% 30.22 in 10.0 mi SSW 15.0 mph 19.6 mph N/A   Clear
12:20 PM 19.4 °F 7.2 °F -5.8 °F 33% 30.21 in 10.0 mi SSW 11.5 mph - N/A   Clear
12:40 PM 19.4 °F 4.1 °F -5.8 °F 33% 30.21 in 10.0 mi SSW 18.4 mph 23.0 mph N/A   Clear
1:00 PM 21.2 °F 7.8 °F -5.8 °F 30% 30.20 in 10.0 mi SSW 15.0 mph 21.9 mph N/A   Clear
1:20 PM 19.4 °F 5.5 °F -4.0 °F 36% 30.20 in 10.0 mi SW 15.0 mph 25.3 mph N/A   Clear
1:40 PM 19.4 °F 4.1 °F -2.2 °F 39% 30.19 in 10.0 mi SSW 18.4 mph 24.2 mph N/A   Clear
2:00 PM 21.2 °F 8.9 °F -2.2 °F 36% 30.19 in 10.0 mi SW 12.7 mph 24.2 mph N/A   Clear
2:20 PM 23.0 °F 10.6 °F -2.2 °F 33% 30.19 in 10.0 mi SW 13.8 mph 20.7 mph N/A   Clear
2:40 PM 23.0 °F 12.4 °F -4.0 °F 31% 30.19 in 10.0 mi SW 10.4 mph 23.0 mph N/A   Clear
3:00 PM 21.2 °F 10.9 °F -2.2 °F 36% 30.19 in 10.0 mi SSW 9.2 mph 20.7 mph N/A   Clear
3:20 PM 21.2 °F 9.5 °F -2.2 °F 36% 30.19 in 10.0 mi SSW 11.5 mph 20.7 mph N/A   Clear
3:40 PM 19.4 °F 6.0 °F -2.2 °F 39% 30.19 in 10.0 mi SSW 13.8 mph 18.4 mph N/A   Clear
4:00 PM 19.4 °F 8.6 °F -2.2 °F 39% 30.19 in 10.0 mi SSW 9.2 mph - N/A   Clear
4:40 PM 17.6 °F 8.2 °F -0.4 °F 45% 30.19 in 10.0 mi SSW 6.9 mph - N/A   Clear
5:20 PM 17.6 °F 12.3 °F -0.4 °F 45% 30.19 in 10.0 mi SSE 3.5 mph - N/A   Overcast
5:40 PM 17.6 °F 9.3 °F -0.4 °F 45% 30.19 in 10.0 mi SSE 5.8 mph - N/A   Overcast
6:20 PM 17.6 °F 10.7 °F -0.4 °F 45% 30.18 in 10.0 mi South 4.6 mph - N/A   Overcast
6:40 PM 17.6 °F 8.2 °F -0.4 °F 45% 30.18 in 10.0 mi South 6.9 mph - N/A   Overcast
7:00 PM 17.6 °F 9.3 °F -0.4 °F 45% 30.18 in 10.0 mi SSW 5.8 mph - N/A   Overcast
7:40 PM 19.4 °F 11.5 °F -0.4 °F 42% 30.17 in 10.0 mi SSE 5.8 mph - N/A   Overcast
8:00 PM 17.6 °F 10.7 °F 1.4 °F 49% 30.16 in 10.0 mi ESE 4.6 mph - N/A   Overcast
8:20 PM 17.6 °F 10.7 °F 1.4 °F 49% 30.16 in 10.0 mi SE 4.6 mph - N/A   Overcast
8:40 PM 17.6 °F 8.2 °F 1.4 °F 49% 30.15 in 10.0 mi South 6.9 mph - N/A   Overcast
9:00 PM 17.6 °F 10.7 °F 1.4 °F 49% 30.15 in 10.0 mi SW 4.6 mph - N/A   Overcast
9:20 PM 15.8 °F 10.2 °F 1.4 °F 53% 30.14 in 10.0 mi ENE 3.5 mph - N/A   Overcast
9:40 PM 14.0 °F - 1.4 °F 57% 30.14 in 10.0 mi Calm Calm - N/A   Overcast
10:00 PM 12.2 °F - 1.4 °F 62% 30.13 in 10.0 mi Calm Calm - N/A   Overcast
10:20 PM 14.0 °F 5.1 °F -0.4 °F 53% 30.14 in 10.0 mi South 5.8 mph - N/A   Overcast
10:40 PM 15.8 °F 8.6 °F 1.4 °F 53% 30.13 in 10.0 mi South 4.6 mph - N/A   Overcast
11:00 PM 14.0 °F 5.1 °F 1.4 °F 57% 30.13 in 10.0 mi SSE 5.8 mph - N/A   Overcast
11:20 PM 14.0 °F 6.5 °F 1.4 °F 57% 30.12 in 10.0 mi East 4.6 mph - N/A   Overcast
11:40 PM 14.0 °F - 1.4 °F 57% 30.12 in 10.0 mi Calm Calm - N/A   Overcast